GW5020 Weather Reports


time (UTC)temp
C
wind
direction
speed
KPH
gust
KPH
rain 1hr
cm
rain 24hr
cm
rain mn
cm
humidity
%
barometer
mb
20260505153355 22 61 4.8 8.0 0.00 0.00 0.00 85 1006.4
20260505152852 22 287 0.0 4.8 0.00 0.00 0.00 86 1006.5
20260505152349 22 283 3.2 6.4 0.00 0.00 0.00 86 1006.5
20260505151849 22 147 4.8 9.7 0.00 0.00 0.00 86 1006.6
20260505151346 22 310 4.8 8.0 0.00 0.00 0.00 85 1006.6
20260505150843 22 279 9.7 11.3 0.00 0.00 0.00 85 1006.5
20260505150341 22 253 0.0 6.4 0.00 0.00 0.00 86 1006.3
20260505140310 22 353 0.0 3.2 0.00 0.00 0.00 87 1006.4
20260505130234 21 230 3.2 4.8 0.00 0.00 0.00 91 1006.1
20260505124724 21 207 0.0 8.0 0.00 0.00 0.00 91 1005.9
20260505124221 21 76 3.2 6.4 0.00 0.00 0.00 91 1005.9
20260505123717 21 185 1.6 4.8 0.00 0.00 0.00 91 1006.0
20260505123214 21 351 1.6 9.7 0.00 0.00 0.00 91 1006.2
20260505122710 21 344 0.0 9.7 0.00 0.00 0.00 91 1006.1
20260505122208 21 143 4.8 8.0 0.00 0.00 0.00 91 1006.1
20260505121704 21 261 0.0 14.5 0.00 0.00 0.00 91 1005.9
20260505121201 21 3 3.2 6.4 0.00 0.00 0.00 91 1006.1
20260505120657 21 132 3.2 8.0 0.00 0.00 0.00 90 1006.0
20260505120153 21 287 1.6 4.8 0.00 0.00 0.00 90 1005.8
20260505115647 21 92 1.6 4.8 0.00 0.00 0.00 90 1005.7
20260505115145 21 175 3.2 6.4 0.00 0.00 0.00 90 1005.6
20260505114642 21 258 0.0 6.4 0.00 0.00 0.00 90 1005.6
20260505114138 21 331 3.2 3.2 0.00 0.00 0.00 90 1005.5
20260505113635 21 165 6.4 8.0 0.00 0.00 0.00 90 1005.6
20260505113131 21 78 0.0 4.8 0.00 0.00 0.00 90 1005.4
20260505112627 21 168 3.2 6.4 0.00 0.00 0.00 90 1005.5
20260505112126 21 331 4.8 6.4 0.00 0.00 0.00 89 1005.5
20260505111620 21 301 4.8 12.9 0.00 0.00 0.00 89 1005.5
20260505111116 21 342 0.0 6.4 0.00 0.00 0.00 89 1005.5
20260505110612 21 350 3.2 12.9 0.00 0.00 0.00 89 1005.7
20260505110109 21 307 4.8 4.8 0.00 0.00 0.00 89 1005.8
20260505102044 20 298 1.6 3.2 0.00 0.00 0.00 88 1005.6
20260505101543 20 37 4.8 8.0 0.00 0.00 0.00 88 1005.8
20260505101039 20 11 3.2 8.0 0.00 0.00 0.00 88 1005.8
20260505100536 20 74 0.0 6.4 0.00 0.00 0.00 88 1005.8
20260505100033 20 88 3.2 8.0 0.00 0.00 0.00 88 1005.8
20260505095529 20 204 8.0 8.0 0.00 0.00 0.00 88 1005.8
20260505095025 20 251 1.6 6.4 0.00 0.00 0.00 88 1005.6
20260505094522 20 234 0.0 4.8 0.00 0.00 0.00 88 1005.4
20260505094018 20 131 0.0 6.4 0.00 0.00 0.00 88 1005.2
20260505093514 20 231 3.2 8.0 0.00 0.00 0.00 88 1005.4
20260505093012 20 227 3.2 6.4 0.00 0.00 0.00 87 1005.5
20260505092509 20 48 3.2 6.4 0.00 0.00 0.00 87 1005.3
20260505092008 20 283 4.8 8.0 0.00 0.00 0.00 87 1005.4
20260505091504 20 110 1.6 8.0 0.00 0.00 0.00 87 1005.3
20260505091002 20 121 1.6 9.7 0.00 0.00 0.00 87 1005.8
20260505090500 20 14 1.6 6.4 0.00 0.00 0.00 87 1005.8
20260505085957 20 50 3.2 11.3 0.00 0.00 0.00 87 1005.7
20260505085455 20 226 4.8 8.0 0.00 0.00 0.00 87 1005.8
20260505084953 20 196 4.8 6.4 0.00 0.00 0.00 86 1005.8
20260505084451 20 309 1.6 8.0 0.00 0.00 0.00 86 1005.9
20260505083949 20 262 3.2 9.7 0.00 0.00 0.00 86 1005.8
20260505083446 20 240 1.6 4.8 0.00 0.00 0.00 86 1005.8
20260505082942 20 220 4.8 6.4 0.00 0.00 0.00 86 1006.1
20260505082437 20 126 0.0 6.4 0.00 0.00 0.00 86 1006.0
20260505081935 20 321 0.0 6.4 0.00 0.00 0.00 86 1006.1
20260505081432 20 307 0.0 6.4 0.00 0.00 0.00 86 1006.2
20260505080928 20 242 4.8 8.0 0.00 0.00 0.00 86 1006.2
20260505080424 20 294 0.0 3.2 0.00 0.00 0.00 86 1006.5
20260505075920 20 141 4.8 6.4 0.00 0.00 0.00 86 1006.2
20260505075417 20 339 3.2 6.4 0.00 0.00 0.00 86 1006.4
20260505074915 20 206 4.8 8.0 0.00 0.00 0.00 86 1006.4
20260505074411 20 112 3.2 4.8 0.00 0.00 0.00 86 1006.5
20260505073909 20 145 1.6 8.0 0.00 0.00 0.00 86 1006.4
20260505073407 20 235 3.2 3.2 0.00 0.00 0.00 87 1006.5
20260505072903 20 133 0.0 6.4 0.00 0.00 0.00 87 1006.4
20260505072359 20 310 0.0 4.8 0.00 0.00 0.00 87 1006.7
20260505071856 20 178 3.2 8.0 0.00 0.00 0.00 87 1006.8
20260505071352 20 107 1.6 4.8 0.00 0.00 0.00 86 1006.7
20260505070850 20 15 4.8 6.4 0.00 0.00 0.00 86 1006.8
20260505070346 20 94 0.0 3.2 0.00 0.00 0.00 86 1006.8
20260505065842 20 210 0.0 8.0 0.00 0.00 0.00 86 1006.9
20260505065339 20 267 0.0 6.4 0.00 0.00 0.00 85 1007.2
20260505064836 20 10 3.2 3.2 0.00 0.00 0.00 85 1007.0
20260505064333 21 80 3.2 4.8 0.00 0.00 0.00 85 1007.0
20260505063831 21 129 0.0 4.8 0.00 0.00 0.00 85 1007.1
20260505063326 21 22 3.2 4.8 0.00 0.00 0.00 84 1007.1
20260505062823 21 282 1.6 4.8 0.00 0.00 0.00 84 1007.1
20260505062321 21 335 1.6 4.8 0.00 0.00 0.00 84 1007.2
20260505061817 21 100 1.6 6.4 0.00 0.00 0.00 83 1007.4
20260505061316 21 86 1.6 4.8 0.00 0.00 0.00 83 1007.2
20260505060813 21 322 3.2 4.8 0.00 0.00 0.00 83 1007.3
20260505060310 21 208 3.2 9.7 0.00 0.00 0.00 83 1007.3
20260505055805 21 80 3.2 6.4 0.00 0.00 0.00 82 1007.5
20260505055303 21 243 1.6 6.4 0.00 0.00 0.00 82 1007.5
20260505054759 21 7 3.2 8.0 0.00 0.00 0.00 81 1007.2
20260505054256 21 38 1.6 6.4 0.00 0.00 0.00 81 1007.3
20260505053755 21 351 4.8 8.0 0.00 0.00 0.00 81 1007.4
20260505053251 21 238 4.8 9.7 0.00 0.00 0.00 81 1007.4
20260505052748 21 288 0.0 4.8 0.00 0.00 0.00 80 1007.4
20260505052245 21 264 8.0 8.0 0.00 0.00 0.00 79 1007.6
20260505051742 21 250 0.0 6.4 0.00 0.00 0.00 80 1007.7
20260505051240 21 176 1.6 6.4 0.00 0.00 0.00 79 1007.4
20260505050738 22 73 1.6 6.4 0.00 0.00 0.00 80 1007.4
20260505050236 21 160 3.2 4.8 0.00 0.00 0.00 79 1007.5
20260505041705 22 175 3.2 8.0 0.00 0.00 0.00 77 1007.6
20260505041203 22 199 3.2 6.4 0.00 0.00 0.00 77 1007.6
20260505040700 22 173 3.2 4.8 0.00 0.00 0.00 78 1007.5
20260505040157 22 211 3.2 3.2 0.00 0.00 0.00 77 1007.6
20260505035653 22 5 0.0 4.8 0.00 0.00 0.00 77 1007.8
20260505035150 22 124 4.8 8.0 0.00 0.00 0.00 77 1007.7
20260505034646 22 109 0.0 6.4 0.00 0.00 0.00 77 1007.6
20260505034144 22 32 0.0 4.8 0.00 0.00 0.00 76 1007.8
20260505033640 22 352 3.2 4.8 0.00 0.00 0.00 76 1007.7
20260505033139 21 107 6.4 6.4 0.00 0.00 0.00 77 1007.7
20260505032636 21 141 1.6 4.8 0.00 0.00 0.00 77 1007.5
20260505032132 21 11 0.0 3.2 0.00 0.00 0.00 78 1007.7
20260505031630 21 319 3.2 6.4 0.00 0.00 0.00 77 1007.6
20260505031125 21 320 0.0 1.6 0.00 0.00 0.00 78 1007.5
20260505030623 21 309 1.6 1.6 0.00 0.00 0.00 78 1007.5
20260505030119 21 199 1.6 1.6 0.00 0.00 0.00 79 1007.5
20260505025614 21 89 1.6 4.8 0.00 0.00 0.00 78 1007.5
20260505025114 21 130 0.0 3.2 0.00 0.00 0.00 79 1007.5
20260505024610 21 117 0.0 3.2 0.00 0.00 0.00 78 1007.4
20260505024108 21 309 0.0 1.6 0.00 0.00 0.00 78 1007.4
20260505023605 21 0 0.0 0.0 0.00 0.00 0.00 78 1007.3
20260505023102 21 187 1.6 3.2 0.00 0.00 0.00 77 1007.4
20260505022600 21 309 0.0 3.2 0.00 0.00 0.00 77 1007.2
20260505022056 21 338 0.0 3.2 0.00 0.00 0.00 77 1007.4
20260505021553 21 48 0.0 3.2 0.00 0.00 0.00 76 1007.5
20260505021050 21 141 0.0 4.8 0.00 0.00 0.00 76 1007.3
20260505020549 21 283 0.0 3.2 0.00 0.00 0.00 76 1007.5
20260505020047 21 240 0.0 4.8 0.00 0.00 0.00 75 1007.5
20260505015544 21 233 0.0 1.6 0.00 0.00 0.00 76 1007.5
20260505015041 21 117 0.0 1.6 0.00 0.00 0.00 76 1007.4
20260505014537 21 129 0.0 1.6 0.00 0.00 0.00 75 1007.4
20260505014035 21 346 0.0 1.6 0.00 0.00 0.00 75 1007.5
20260505013531 21 352 0.0 1.6 0.00 0.00 0.00 75 1007.2
20260505013029 22 0 0.0 1.6 0.00 0.00 0.00 73 1007.3
20260505012527 22 130 0.0 1.6 0.00 0.00 0.00 74 1007.1
20260505012024 22 326 0.0 3.2 0.00 0.00 0.00 73 1007.3
20260505011519 22 309 0.0 1.6 0.00 0.00 0.00 73 1007.3
20260505011017 22 180 0.0 4.8 0.00 0.00 0.00 72 1007.2
20260505010512 22 326 0.0 1.6 0.00 0.00 0.00 72 1007.3
20260505010009 22 180 0.0 3.2 0.00 0.00 0.00 71 1007.3
20260505005505 23 326 0.0 3.2 0.00 0.00 0.00 69 1007.3
20260505005004 23 216 1.6 4.8 0.00 0.00 0.00 69 1007.3
20260505004459 23 283 0.0 3.2 0.00 0.00 0.00 69 1007.0
20260505003956 23 212 3.2 4.8 0.00 0.00 0.00 68 1007.2
20260505003453 23 264 6.4 6.4 0.00 0.00 0.00 66 1007.3
20260505002950 23 175 1.6 3.2 0.00 0.00 0.00 66 1007.3
20260505002446 24 243 0.0 6.4 0.00 0.00 0.00 65 1007.3
20260505001945 24 319 4.8 4.8 0.00 0.00 0.00 65 1007.3
20260505001442 24 91 1.6 6.4 0.00 0.00 0.00 65 1007.5
20260505000938 25 102 1.6 3.2 0.00 0.00 0.00 66 1007.2
20260505000437 25 57 0.0 3.2 0.00 0.00 0.00 65 1007.3
20260504235933 25 110 0.0 3.2 0.00 0.00 0.00 65 1007.5
20260504235431 25 322 3.2 3.2 0.00 0.00 0.00 64 1007.4
20260504234926 25 274 1.6 6.4 0.00 0.00 0.00 63 1007.7
20260504234424 25 42 1.6 6.4 0.00 0.00 0.00 62 1007.5
20260504233920 25 0 0.0 8.0 0.00 0.00 0.00 61 1007.6
20260504233416 26 135 0.0 6.4 0.00 0.00 0.00 62 1007.7
20260504232913 26 18 3.2 4.8 0.00 0.00 0.00 58 1007.8
20260504232410 26 266 3.2 6.4 0.00 0.00 0.00 58 1007.9
20260504231908 27 162 3.2 6.4 0.00 0.00 0.00 57 1007.9
20260504231403 27 85 4.8 6.4 0.00 0.00 0.00 57 1007.8
20260504230900 27 150 3.2 8.0 0.00 0.00 0.00 57 1007.8
20260504230357 27 33 3.2 9.7 0.00 0.00 0.00 56 1007.9
20260504225856 27 131 0.0 3.2 0.00 0.00 0.00 59 1008.0
20260504225352 26 119 1.6 6.4 0.00 0.00 0.00 59 1007.9
20260504224850 26 75 3.2 9.7 0.00 0.00 0.00 57 1007.9
20260504224346 26 348 3.2 6.4 0.00 0.00 0.00 56 1007.9
20260504223843 26 0 3.2 6.4 0.00 0.00 0.00 57 1008.0
20260504223338 26 234 0.0 4.8 0.00 0.00 0.00 55 1007.9
20260504222835 26 159 3.2 6.4 0.00 0.00 0.00 57 1008.0
20260504222332 26 328 0.0 6.4 0.00 0.00 0.00 59 1008.2
20260504221831 26 194 4.8 8.0 0.00 0.00 0.00 56 1008.2
20260504221327 26 217 1.6 9.7 0.00 0.00 0.00 56 1008.3
20260504220824 27 107 3.2 3.2 0.00 0.00 0.00 54 1008.3
20260504220321 27 217 1.6 6.4 0.00 0.00 0.00 54 1008.2
20260504215818 28 239 1.6 9.7 0.00 0.00 0.00 50 1008.4
20260504215314 27 328 1.6 6.4 0.00 0.00 0.00 53 1008.4
20260504214811 27 345 1.6 8.0 0.00 0.00 0.00 51 1008.3
20260504214308 28 113 3.2 9.7 0.00 0.00 0.00 51 1008.6
20260504213804 28 185 6.4 6.4 0.00 0.00 0.00 50 1008.8
20260504213300 27 267 1.6 6.4 0.00 0.00 0.00 51 1008.8
20260504212758 27 95 3.2 14.5 0.00 0.00 0.00 50 1008.9
20260504212254 27 307 4.8 9.7 0.00 0.00 0.00 51 1008.9
20260504211752 27 355 3.2 6.4 0.00 0.00 0.00 52 1009.0
20260504211247 27 101 3.2 8.0 0.00 0.00 0.00 53 1009.3
20260504210745 27 10 0.0 4.8 0.00 0.00 0.00 53 1009.3
20260504210242 27 82 3.2 6.4 0.00 0.00 0.00 53 1009.5
20260504205739 27 0 4.8 6.4 0.00 0.00 0.00 52 1009.8
20260504205237 27 210 1.6 6.4 0.00 0.00 0.00 51 1009.9
20260504204735 27 37 3.2 6.4 0.00 0.00 0.00 53 1009.8
20260504204233 27 281 3.2 6.4 0.00 0.00 0.00 53 1009.9
20260504203732 27 223 3.2 8.0 0.00 0.00 0.00 52 1010.1
20260504203229 27 10 3.2 8.0 0.00 0.00 0.00 51 1010.2
20260504202723 27 330 3.2 8.0 0.00 0.00 0.00 52 1010.1
20260504202220 27 272 8.0 8.0 0.00 0.00 0.00 50 1010.1
20260504201717 27 256 0.0 6.4 0.00 0.00 0.00 51 1010.4
20260504201215 27 53 0.0 4.8 0.00 0.00 0.00 51 1010.5
20260504200712 27 62 0.0 8.0 0.00 0.00 0.00 53 1010.5
20260504200208 27 254 1.6 6.4 0.00 0.00 0.00 51 1010.5
20260504195705 27 205 3.2 6.4 0.00 0.00 0.00 49 1010.5
20260504195200 27 108 3.2 3.2 0.00 0.00 0.00 49 1010.7
20260504194658 27 89 0.0 6.4 0.00 0.00 0.00 53 1011.0
20260504194154 27 344 0.0 6.4 0.00 0.00 0.00 50 1010.9
20260504193651 27 306 1.6 11.3 0.00 0.00 0.00 52 1011.2
20260504193149 27 106 0.0 8.0 0.00 0.00 0.00 51 1011.3
20260504192647 26 260 1.6 9.7 0.00 0.00 0.00 50 1011.4
20260504192144 26 45 4.8 8.0 0.00 0.00 0.00 48 1011.2
20260504191642 26 345 4.8 11.3 0.00 0.00 0.00 48 1011.4
20260504191138 26 12 4.8 14.5 0.00 0.00 0.00 48 1011.4
20260504190634 26 247 6.4 9.7 0.00 0.00 0.00 49 1011.4
20260504190131 26 36 3.2 8.0 0.00 0.00 0.00 48 1011.5
20260504185627 26 165 0.0 3.2 0.00 0.00 0.00 50 1011.7
20260504185124 26 99 3.2 6.4 0.00 0.00 0.00 49 1011.6
20260504184620 26 77 0.0 6.4 0.00 0.00 0.00 50 1011.9
20260504184115 26 68 3.2 6.4 0.00 0.00 0.00 49 1011.7
20260504183612 26 131 1.6 16.1 0.00 0.00 0.00 49 1011.7
20260504183110 26 207 4.8 4.8 0.00 0.00 0.00 50 1011.7
20260504182607 26 337 3.2 11.3 0.00 0.00 0.00 46 1012.0
20260504182105 26 135 0.0 11.3 0.00 0.00 0.00 50 1012.1
20260504181601 25 166 1.6 11.3 0.00 0.00 0.00 49 1012.4
20260504181059 26 98 0.0 8.0 0.00 0.00 0.00 49 1012.5
20260504180558 26 71 4.8 6.4 0.00 0.00 0.00 48 1012.2
20260504180057 25 116 0.0 9.7 0.00 0.00 0.00 48 1012.6
20260504175554 26 217 3.2 9.7 0.00 0.00 0.00 50 1012.7
20260504175050 25 126 1.6 4.8 0.00 0.00 0.00 50 1012.6
20260504174548 25 27 4.8 8.0 0.00 0.00 0.00 51 1012.8
20260504174045 25 143 0.0 9.7 0.00 0.00 0.00 50 1012.5
20260504173542 25 247 1.6 8.0 0.00 0.00 0.00 50 1012.8
20260504173039 25 267 6.4 6.4 0.00 0.00 0.00 50 1013.0
20260504172535 25 69 3.2 6.4 0.00 0.00 0.00 48 1013.4
20260504172032 25 275 4.8 8.0 0.00 0.00 0.00 49 1013.3
20260504171529 25 173 0.0 4.8 0.00 0.00 0.00 50 1013.4
20260504171021 25 340 4.8 4.8 0.00 0.00 0.00 52 1013.4
20260504170516 24 359 4.8 9.7 0.00 0.00 0.00 51 1013.4
20260504160436 23 50 6.4 9.7 0.00 0.00 0.00 55 1013.8